Regional Weather Roundup
Issued by NWS

Home | Current Version | Previous Version | Graphics & Text | Print | Product List | Glossary On
Versions: 1 2 3 4 5 6 7 8 9 10 11 12 13 14 15 16 17 18 19 20 21 22 23 24 25 26 27 28 29 30 31 32 33 34 35 36 37 38 39 40 41 42 43 44 45 46 47 48 49 50
000
ASUS45 KBOU 291107
RWRCO

WEATHER ROUNDUP FOR COLORADO
NATIONAL WEATHER SERVICE DENVER/BOULDER CO
500 AM MDT FRI AUG 29 2014

NOTE: "FAIR" INDICATES FEW OR NO CLOUDS BELOW 12000 FEET WITH NO
SIGNIFICANT WEATHER AND/OR OBSTRUCTIONS TO VISIBILITY.

COZ001>005-013-030-031-291200-
...NORTHWEST COLORADO...

CITY           SKY/WX    TMP DP  RH WIND       PRES   REMARKS
CRAIG          MOCLDY    48  45  89 CALM      30.23S
HAYDEN         PTCLDY    48  43  81 E8        30.25S
MEEKER         CLEAR     47  44  90 NE7       30.25S
MOUNT WERNER   NOT AVBL
STEAMBOAT SPGS MOCLDY    45  43  95 CALM      30.27S
WALDEN         CLOUDY    39  36  87 SE8       30.30S
$$

COZ006>008-011-291200-
...WEST CENTRAL VALLEYS...

CITY           SKY/WX    TMP DP  RH WIND       PRES   REMARKS
GRAND JUNCTION CLOUDY    59  51  75 SE9       30.15R
MONTROSE       CLEAR     53  44  71 S10       30.23S
EAGLE          CLEAR     45  45 100 CALM      30.31S
RIFLE          PTCLDY    51  47  86 CALM      30.22S
DELTA          CLEAR     55  49  80 NE7       30.21R
NUCLA          CLEAR     50  45  81 SE5       30.25S
$$

COZ017>023-064>068-291200-
...SOUTHWEST COLORADO...

CITY           SKY/WX    TMP DP  RH WIND       PRES   REMARKS
DURANGO        CLEAR     42  38  85 CALM      30.23S
CORTEZ         CLEAR     45  42  89 NE5       30.20F
PAGOSA SPRINGS CLEAR     42  34  74 CALM      30.29F
TELLURIDE      CLEAR     43  37  81 SE6       30.39S
WOLF CREEK PAS CLEAR     37  28  70 NE5       30.52S
$$

COZ009-010-012-014-032>034-037-058>063-291200-
...CENTRAL COLORADO...

CITY           SKY/WX    TMP DP  RH WIND       PRES   REMARKS
ASPEN          CLEAR     41  38  89 S5        30.33R
BUENA VISTA    CLEAR     41  36  83 CALM      30.32R
COPPER MTN     FOG       41  37  87 W8        30.54S VSB<1/4
BERTHOUD PASS  FOG       34  32  93 NW24G31   30.55S VSB 1/4 WCI  21
COTTONWOOD PAS CLEAR     48  36  61 W9        30.41R
GUNNISON       CLEAR     41  36  81 CALM      30.37S
KREMMLING      FOG       37  36  93 CALM      30.34R VSB 1/4
LEADVILLE      CLEAR     36  34  92 NE7       30.42R
MONARCH PASS   CLEAR     36  34  93 W16       30.62S
SALIDA         CLEAR     46  40  80 NW3       30.37S
SUNLIGHT       PTCLDY    45  43  93 CALM      30.50S
WILKERSON PASS NOT AVBL
$$

COZ069>075-291200-
...SAN LUIS VALLEY/SANGRE DE CRISTO MOUNTAINS...

CITY           SKY/WX    TMP DP  RH WIND       PRES   REMARKS
ALAMOSA        PTCLDY    37  35  92 S5        30.29S
LA VETA PASS   NOT AVBL
SAGUACHE       NOT AVBL
$$

COZ035-036-038>040-291200-
...NORTHERN COLORADO FRONT RANGE...

CITY           SKY/WX    TMP DP  RH WIND       PRES   REMARKS
DENVER INTL AP CLEAR     55  45  68 SW12      30.08S
DMNS CITY PARK   N/A     54  45  70 S6        30.10S
AURORA         PTCLDY    53  45  73 SW8       30.11S
FRONT RANGE AP CLEAR     57  46  67 SW8       30.10R
ERIE MUNI ARPT CLEAR     47  45  94 CALM      30.07S
BOULDER MUN AP CLEAR     55  45  67 SW5       30.07S
CENTENNIAL     PTCLDY    55  41  59 SW12      30.12S
BROOMFIELD     CLEAR     63  41  45 W12       30.10S
FORT COLLINS   CLEAR     52  48  87 CALM      30.08S
LONGMONT       CLEAR     50  46  87 CALM      30.09S
$$

COZ041-046-047-076>085-087-088-291200-
...PIKES PEAK/PALMER DIVIDE AND SOUTHERN FOOTHILLS...

CITY           SKY/WX    TMP DP  RH WIND       PRES   REMARKS
COLO. SPRINGS  CLEAR     56  40  55 NW9       30.15S
A. F. ACADEMY  CLEAR     46  40  78 NE6       30.17S
ELLICOTT       CLEAR     48  42  80 CALM      30.13S
FALCON         CLEAR     53  38  57 NW9       30.18F
FORT CARSON    CLEAR     51  43  72 NW7       30.13S
LIMON          PTCLDY    50  45  83 CALM      30.09F
MONUMENT HILL  CLEAR     45  37  76 W9        30.19R
TRINIDAD       CLEAR     53  42  66 W16       30.14S
$$

COZ042>045-048>051-090-091-291200-
...NORTHEAST COLORADO...

CITY           SKY/WX    TMP DP  RH WIND       PRES   REMARKS
GREELEY ARPT   CLEAR     46  37  71 CALM      30.06S
AKRON          CLEAR     53  48  83 W13       30.02F
BURLINGTON     CLEAR     53  49  86 W8        30.00S
WRAY           NOT AVBL
STERLING       CLEAR     54  54 100 SW5       29.99S
HOLYOKE        CLEAR     59  52  77 W12       29.96S
FORT MORGAN    CLEAR     50  48  94 W8        30.04S
$$

COZ086-089-092>099-291200-
...SOUTHEAST COLORADO...

CITY           SKY/WX    TMP DP  RH WIND       PRES   REMARKS
PUEBLO         CLEAR     50  47  89 W5        30.08F
LA JUNTA       CLEAR     54  50  86 S6        30.04F
LAMAR          PTCLDY    56  53  90 W6        29.99S
SPRINGFIELD      N/A     56  49  77 W10       30.03F
$$



USA.gov is the U.S. government's official web portal to all federal, state and local government web resources and services.